CZ-2C DEB, 40289

Orbit data source: Space-Track

CZ-2C DEB, 40289 is space debris in SSO originally from a launch on Mon, 27 Oct 2014 UTC launched from the Jiuquan Satellite Launch Center, China (JSC). Debris objects in space refer to the collection of defunct objects orbiting the Earth. Examples of debris include non-operational satellites, rocket bodies, and fragments generated from explosions, collisions, or faulty payload assembly.

Loading next visibility...
Identifier
40289, 2014-066D
Orbit
SSO
Country
Flag of CNCN / PRC
Related business
Manufacturer
CALT
Mission
Spacecraft
Bus & Motor
Unknown
Mass
1 kg wet, 1 kg dry
Launch date (UTC)
2014-10-27 (12 years ago)
Launch vehicle
Unknown
Launch site
Jiuquan Satellite Launch Center, China (JSC)
Object type
Payload
Rocket body
Debris
Shape & HBR
Cone, 0.1 m
Radar Cross Section
0.025 m², Small (<0.1 m²)

Expand to show TLE details & history
Last TLE update: 11 hours ago

TLE from 11 hours ago
0 CZ-2C DEB
1 40289U 14066D   26121.30698844  .00011951  00000-0  15542-2 0  9990
2 40289  98.4901  36.8912 0065484 298.8281  60.6365 14.79321307611348
Epoch: 2026-05-01T07:22Z
TLE epoch observation values (Epoch: 2026-05-01T07:22:03.801Z)
Latitude
-0.00001°
Longitude
67.13424°
Altitude
612.187 km
Speed
7.565 km/s
True Right ascension
02h 27m 33s
True Declination
0° 00' 00"
Sunlit
Object was in daylight at epoch
Visualization orbit readout
Latitude
Unknown
Longitude
Unknown
Altitude
Unknown
Speed
Unknown
Apparent Right ascension
Unknown
Apparent Declination
Unknown
Sunlit
N/A
Visualization observer readout
Local Sidereal Time
01:47:31
Azimuth
Unknown
Elevation
Unknown
Doppler factor
Unknown
Orbital elements
Apogee altitude
674.419 km
Perigee altitude
582.654 km
Semi-major axis
7,006.673 km
Eccentricity
0.00655
Inclination
98.4901°
RAAN
36.8912°
Arg. of periapsis
298.8281°
True anomaly
61.29311°
Mean anomaly
60.6365°
Eccentric anomaly
60.96454°
Mean motion
3.70063 °/min
Orbital period
97.28 mins
BSTAR
0.0015542
Loading maneuver chart data...
Computing Atmospheric mass density...
Loading historical data...
Loading historical data...
Loading historical data...
Loading historical data...
Loading historical data...
Loading historical data...
Loading historical data...
Other satellites on launch #66 in the year 2014 (2014-10-27 UTC)

Documentation

Showing up to 5 results
|